Weather History for Stanton, MN

Change the Weather History Date:

Saturday, May 4, 2013

  Actual Average (KLVN) Record (KLVN)
Temperature  
Mean Temperature 40 °F -  
Max Temperature 49 °F 69 °F 94 °F (1952)
Min Temperature 33 °F 44 °F 26 °F (1967)
Degree Days  
Heating Degree Days 24    
Moisture  
Dew Point 35 °F    
Average Humidity 85    
Maximum Humidity 94    
Minimum Humidity 76    
Precipitation  
Precipitation 0.05 in - - ()
Sea Level Pressure  
Sea Level Pressure 30.10 in    
Wind  
Wind Speed 11 mph (NNE)    
Max Wind Speed 15 mph    
Max Gust Speed 18 mph    
Visibility 10 miles    
Events Snow    
Averages and records for this station are not official NWS values.
T = Trace of Precipitation, MM = Missing Value Source: NWS Daily Summary

Daily Weather History Graph

Daily Weather History Graph

Search for Another Location

Airport:

Trip Planner

Search our weather history database for the weather conditions in past years. The results will help you decide how hot, cold, wet, or windy it might be!

Date:

Astronomy

May. 04, 2013 Rise Set
Actual Time 5:57 AM CDT 8:20 PM CDT
Civil Twilight 5:25 AM CDT 8:52 PM CDT
Nautical Twilight 4:45 AM CDT 9:33 PM CDT
Astronomical Twilight 4:00 AM CDT 10:18 PM CDT
Moon 3:09 AM CDT (5/4) 3:07 PM CDT (5/4)
Length of Visible Light 15h 27m
Length of Day
14h 22m
Waning Crescent, 27% of the Moon is Illuminated
May 4
Waning Crescent
May 9
New
May 17
First Quarter
May 24
Full
May 31
Last Quarter

Hourly Weather History & Observations

Time (CDT) Temp. Windchill Dew Point Humidity Pressure Visibility Wind Dir Wind Speed Gust Speed Precip Events Conditions
12:14 AM 33.8 °F 25.3 °F 31.1 °F 90% 30.11 in 10.0 mi NNE 11.5 mph - N/A   Unknown
12:33 AM 33.8 °F 24.8 °F 31.1 °F 90% 30.11 in 10.0 mi NNE 12.7 mph 18.4 mph N/A   Unknown
12:54 AM 33.8 °F 24.8 °F 31.1 °F 90% 30.10 in 10.0 mi North 12.7 mph - N/A   Unknown
1:14 AM 33.8 °F 24.8 °F 31.5 °F 91% 30.10 in 10.0 mi NNE 12.7 mph - N/A   Unknown
1:33 AM 33.8 °F 25.3 °F 31.5 °F 91% 30.10 in 10.0 mi North 11.5 mph - N/A   Unknown
1:54 AM 33.4 °F 23.9 °F 31.5 °F 92% 30.08 in 5.0 mi North 13.8 mph - N/A   Unknown
2:14 AM 33.4 °F 24.3 °F 31.6 °F 93% 30.08 in 3.0 mi NNE 12.7 mph - N/A   Unknown
2:33 AM 33.4 °F 24.3 °F 31.6 °F 93% 30.09 in 3.0 mi NNE 12.7 mph 18.4 mph 0.01 in Snow Light Snow
2:54 AM 33.4 °F 24.8 °F 31.8 °F 94% 30.09 in 10.0 mi NNE 11.5 mph - 0.01 in   Unknown
3:13 AM 33.4 °F 24.8 °F 31.8 °F 94% 30.08 in 5.0 mi North 11.5 mph - 0.01 in   Unknown
3:34 AM 33.4 °F 25.4 °F 32.0 °F 94% 30.08 in 5.0 mi North 10.4 mph - 0.03 in   Unknown
3:53 AM 33.6 °F 25.0 °F 31.8 °F 93% 30.08 in 7.0 mi NNE 11.5 mph - 0.03 in   Unknown
4:13 AM 33.6 °F 25.0 °F 32.0 °F 94% 30.08 in 7.0 mi NNE 11.5 mph - N/A   Unknown
4:34 AM 33.4 °F 23.9 °F 32.0 °F 94% 30.07 in 10.0 mi NNE 13.8 mph 18.4 mph N/A   Unknown
4:53 AM 33.4 °F 23.9 °F 32.0 °F 94% 30.07 in 10.0 mi NNE 13.8 mph - N/A   Unknown
5:14 AM 33.6 °F 23.7 °F 32.0 °F 94% 30.08 in 10.0 mi NNE 15.0 mph - N/A   Unknown
5:33 AM 33.8 °F 25.3 °F 32.0 °F 93% 30.08 in 10.0 mi NNE 11.5 mph - N/A   Unknown
5:54 AM 33.8 °F 24.8 °F 32.0 °F 93% 30.07 in 10.0 mi NNE 12.7 mph - N/A   Unknown
6:14 AM 33.8 °F 25.3 °F 32.0 °F 93% 30.08 in 7.0 mi NNE 11.5 mph - 0.01 in   Unknown
6:33 AM 33.8 °F 25.3 °F 32.0 °F 93% 30.08 in 10.0 mi NNE 11.5 mph - 0.01 in   Unknown
6:54 AM 34.0 °F 26.0 °F 32.0 °F 92% 30.08 in 10.0 mi NNE 10.4 mph - 0.01 in   Unknown
7:14 AM 34.0 °F 26.6 °F 32.0 °F 92% 30.08 in 10.0 mi NNE 9.2 mph - N/A   Unknown
7:33 AM 34.2 °F 25.7 °F 32.0 °F 92% 30.10 in 10.0 mi NNE 11.5 mph - N/A   Unknown
7:54 AM 34.3 °F 26.5 °F 32.0 °F 91% 30.09 in 10.0 mi NNE 10.4 mph - N/A   Unknown
8:14 AM 34.7 °F 26.9 °F 32.0 °F 90% 30.10 in 10.0 mi NNE 10.4 mph - N/A   Unknown
8:33 AM 34.7 °F 26.4 °F 32.0 °F 90% 30.10 in 10.0 mi NNE 11.5 mph - N/A   Unknown
8:54 AM 35.1 °F 27.4 °F 32.2 °F 89% 30.10 in 10.0 mi NNE 10.4 mph - N/A   Unknown
9:14 AM 35.2 °F 27.6 °F 32.2 °F 89% 30.09 in 10.0 mi NNE 10.4 mph - N/A   Unknown
9:33 AM 35.6 °F 28.0 °F 32.4 °F 88% 30.10 in 10.0 mi NNE 10.4 mph - N/A   Unknown
9:54 AM 35.6 °F 27.5 °F 32.4 °F 88% 30.10 in 10.0 mi NNE 11.5 mph - N/A   Unknown
10:13 AM 35.8 °F 26.9 °F 32.4 °F 87% 30.10 in 10.0 mi NNE 13.8 mph - N/A   Unknown
10:33 AM 36.0 °F 27.5 °F 32.5 °F 87% 30.10 in 10.0 mi NNE 12.7 mph - N/A   Unknown
10:54 AM 36.5 °F 30.3 °F 32.9 °F 87% 30.10 in 10.0 mi NNE 8.1 mph - N/A   Unknown
11:13 AM 36.7 °F 28.9 °F 32.9 °F 86% 30.10 in 10.0 mi NNE 11.5 mph - N/A   Unknown
11:34 AM 37.4 °F 29.8 °F 33.1 °F 84% 30.11 in 10.0 mi NNE 11.5 mph - N/A   Unknown
11:53 AM 38.1 °F 31.2 °F 33.3 °F 83% 30.12 in 10.0 mi NNE 10.4 mph - N/A   Unknown
12:14 PM 39.2 °F 32.5 °F 33.8 °F 81% 30.11 in 10.0 mi NNE 10.4 mph - N/A   Unknown
12:39 PM 39.7 °F 33.7 °F 33.8 °F 79% 30.12 in 10.0 mi NNE 9.2 mph - N/A   Unknown
12:53 PM 39.2 °F 33.0 °F 33.6 °F 80% 30.11 in 10.0 mi NNE 9.2 mph - N/A   Unknown
1:14 PM 39.7 °F 35.6 °F 34.0 °F 80% 30.12 in 10.0 mi NNE 5.8 mph - N/A   Unknown
1:33 PM 40.1 °F 34.1 °F 34.0 °F 79% 30.12 in 10.0 mi North 9.2 mph - N/A   Unknown
1:54 PM 41.0 °F 35.2 °F 34.3 °F 77% 30.12 in 10.0 mi NNE 9.2 mph - N/A   Unknown
2:13 PM 41.0 °F 34.3 °F 34.7 °F 78% 30.11 in 10.0 mi NNE 11.5 mph - N/A   Unknown
2:34 PM 41.5 °F 35.4 °F 35.2 °F 78% 30.11 in 10.0 mi NNE 10.4 mph - N/A   Unknown
2:53 PM 42.8 °F 37.0 °F 35.8 °F 76% 30.10 in 10.0 mi NNE 10.4 mph - N/A   Unknown
3:13 PM 42.8 °F 36.6 °F 36.5 °F 78% 30.10 in 10.0 mi NNE 11.5 mph - N/A   Unknown
3:34 PM 43.2 °F 39.0 °F 36.7 °F 78% 30.10 in 10.0 mi NNE 6.9 mph - N/A   Unknown
3:53 PM 44.4 °F 40.5 °F 37.2 °F 76% 30.10 in 10.0 mi NNE 6.9 mph - N/A   Unknown
4:14 PM 45.0 °F 42.6 °F 38.3 °F 77% 30.10 in 10.0 mi NNE 4.6 mph - N/A   Unknown
4:33 PM 45.7 °F 43.4 °F 38.5 °F 76% 30.10 in 10.0 mi NNE 4.6 mph - N/A   Unknown
4:54 PM 45.5 °F 42.5 °F 38.3 °F 76% 30.10 in 10.0 mi NNE 5.8 mph - N/A   Unknown
5:14 PM 46.4 °F 43.5 °F 39.6 °F 77% 30.09 in 10.0 mi NNE 5.8 mph - N/A   Unknown
5:33 PM 47.8 °F - 40.5 °F 76% 30.10 in 10.0 mi NNE 4.6 mph - N/A   Unknown
5:54 PM 48.2 °F - 41.2 °F 77% 30.10 in 10.0 mi NE 3.5 mph - N/A   Unknown
6:13 PM 47.3 °F - 40.6 °F 78% 30.10 in 10.0 mi NNW 9.2 mph - N/A   Unknown
6:34 PM 47.5 °F - 41.4 °F 79% 30.10 in 10.0 mi North 6.9 mph - N/A   Unknown
6:53 PM 48.0 °F - 41.2 °F 77% 30.10 in 10.0 mi NNW 9.2 mph - N/A   Unknown
7:13 PM 46.9 °F - 41.0 °F 80% 30.10 in 10.0 mi North 6.9 mph - N/A   Unknown
7:34 PM 45.9 °F 42.3 °F 40.8 °F 83% 30.10 in 10.0 mi NNW 6.9 mph - N/A   Unknown
7:53 PM 46.9 °F - 40.8 °F 79% 30.11 in 10.0 mi North 8.1 mph - N/A   Unknown
8:14 PM 45.7 °F 41.5 °F 40.1 °F 81% 30.12 in 10.0 mi North 8.1 mph - N/A   Unknown
8:34 PM 45.1 °F 40.3 °F 39.7 °F 81% 30.12 in 10.0 mi North 9.2 mph - N/A   Unknown
8:53 PM 44.6 °F 39.7 °F 39.6 °F 82% 30.13 in 10.0 mi North 9.2 mph - N/A   Unknown
9:14 PM 44.2 °F 38.8 °F 39.4 °F 83% 30.13 in 10.0 mi North 10.4 mph - N/A   Unknown
9:33 PM 44.1 °F 39.0 °F 39.6 °F 84% 30.13 in 10.0 mi North 9.2 mph - N/A   Unknown
9:54 PM 43.7 °F 38.1 °F 39.2 °F 84% 30.13 in 10.0 mi North 10.4 mph - N/A   Unknown
10:13 PM 43.2 °F 37.9 °F 38.8 °F 85% 30.13 in 10.0 mi North 9.2 mph - N/A   Unknown
10:33 PM 42.4 °F 36.5 °F 38.3 °F 85% 30.14 in 10.0 mi NNE 10.4 mph - N/A   Unknown
10:54 PM 41.7 °F 36.7 °F 37.6 °F 85% 30.14 in 10.0 mi North 8.1 mph - N/A   Unknown
11:13 PM 42.1 °F 36.6 °F 38.3 °F 86% 30.14 in 10.0 mi North 9.2 mph - N/A   Unknown
11:33 PM 41.9 °F 36.3 °F 37.9 °F 86% 30.14 in 10.0 mi North 9.2 mph - N/A   Unknown
11:54 PM 41.5 °F 35.9 °F 37.6 °F 86% 30.14 in 10.0 mi North 9.2 mph - N/A   Unknown